Location: Nemiskam
(49.4820°N, 111.2775°W)
Time: 10:03:01
(UTC+00:00)

Envisat - Pass Details

Date: 04 December 2022
Orbit: 763 x 765 km, 98.2° (Epoch: 28 January)

Event Time Altitude Azimuth Distance (km) Brightness Sun altitude
Rises 12:02:08 0° 12° (NNE) 3,246 6.4 -28.5°
Reaches altitude 10° 12:04:27 10° 11° (N) 2,315 5.6 -28.1°
Enters shadow 12:06:52 29° 6° (N) 1,393 4.3 -27.7°
